| time (UTC) | temp F | wind direction | speed MPH | gust MPH | rain 1hr in | rain 24hr in | rain mn in | humidity % | barometer mb |
| 20260510053505 | 51 | 340 | 7.0 | 8.0 | 0.00 | 0.00 | 0.00 | 84 | 1014.0 |
| 20260510053005 | 51 | 30 | 6.0 | 6.0 | 0.00 | 0.00 | 0.00 | 85 | 1014.0 |
| 20260510052505 | 51 | 342 | 6.0 | 8.0 | 0.00 | 0.00 | 0.00 | 85 | 1014.1 |
| 20260510052005 | 51 | 12 | 3.0 | 4.0 | 0.00 | 0.00 | 0.00 | 85 | 1014.0 |
| 20260510051505 | 51 | 8 | 4.0 | 5.0 | 0.00 | 0.00 | 0.00 | 86 | 1014.2 |
| 20260510051005 | 51 | 19 | 3.0 | 5.0 | 0.00 | 0.00 | 0.00 | 86 | 1014.3 |
| 20260510050506 | 51 | 20 | 4.0 | 5.0 | 0.00 | 0.00 | 0.00 | 87 | 1013.9 |
| 20260510050006 | 51 | 39 | 4.0 | 5.0 | 0.00 | 0.00 | 0.00 | 87 | 1013.9 |
| 20260510045505 | 50 | 359 | 4.0 | 5.0 | 0.00 | 0.00 | 0.00 | 88 | 1013.7 |
| 20260510045006 | 50 | 12 | 5.0 | 6.0 | 0.00 | 0.00 | 0.00 | 88 | 1013.7 |
| 20260510044506 | 50 | 347 | 5.0 | 6.0 | 0.00 | 0.00 | 0.00 | 88 | 1014.1 |
| 20260510044006 | 50 | 19 | 3.0 | 4.0 | 0.00 | 0.00 | 0.00 | 88 | 1013.7 |
| 20260510043505 | 50 | 355 | 6.0 | 8.0 | 0.00 | 0.00 | 0.00 | 89 | 1013.9 |
| 20260510043005 | 50 | 2 | 3.0 | 4.0 | 0.00 | 0.00 | 0.00 | 89 | 1013.7 |
| 20260510042505 | 50 | 3 | 5.0 | 6.0 | 0.00 | 0.00 | 0.00 | 89 | 1013.8 |
| 20260510042005 | 50 | 24 | 3.0 | 4.0 | 0.00 | 0.00 | 0.00 | 89 | 1014.1 |
| 20260510041505 | 50 | 10 | 3.0 | 4.0 | 0.00 | 0.00 | 0.00 | 89 | 1013.8 |
| 20260510041005 | 50 | 13 | 2.0 | 3.0 | 0.00 | 0.00 | 0.00 | 89 | 1013.9 |
| 20260510040505 | 50 | 351 | 4.0 | 5.0 | 0.00 | 0.00 | 0.00 | 89 | 1014.0 |
| 20260510040005 | 50 | 20 | 5.0 | 6.0 | 0.00 | 0.00 | 0.00 | 89 | 1013.5 |
| 20260510035505 | 50 | 62 | 4.0 | 6.0 | 0.00 | 0.00 | 0.00 | 89 | 1013.8 |
| 20260510035005 | 51 | 14 | 4.0 | 4.0 | 0.00 | 0.00 | 0.00 | 88 | 1013.7 |
| 20260510034505 | 51 | 5 | 6.0 | 8.0 | 0.00 | 0.00 | 0.00 | 88 | 1013.5 |
| 20260510034010 | 51 | 338 | 4.0 | 5.0 | 0.00 | 0.00 | 0.00 | 88 | 1013.8 |
| 20260510033506 | 51 | 349 | 2.0 | 4.0 | 0.00 | 0.00 | 0.00 | 87 | 1013.9 |
| 20260510033006 | 51 | 354 | 3.0 | 4.0 | 0.00 | 0.00 | 0.00 | 87 | 1013.8 |
| 20260510032505 | 51 | 40 | 3.0 | 3.0 | 0.00 | 0.00 | 0.00 | 87 | 1013.8 |
| 20260510032005 | 51 | 351 | 4.0 | 4.0 | 0.00 | 0.00 | 0.00 | 86 | 1013.9 |
| 20260510031505 | 51 | 4 | 5.0 | 5.0 | 0.00 | 0.00 | 0.00 | 86 | 1014.2 |
| 20260510031005 | 51 | 13 | 3.0 | 5.0 | 0.00 | 0.00 | 0.00 | 86 | 1014.0 |
| 20260510030505 | 51 | 22 | 3.0 | 4.0 | 0.00 | 0.00 | 0.00 | 86 | 1014.0 |
| 20260510030005 | 51 | 22 | 4.0 | 4.0 | 0.00 | 0.00 | 0.00 | 86 | 1013.9 |
| 20260510025505 | 52 | 17 | 4.0 | 4.0 | 0.00 | 0.00 | 0.00 | 85 | 1013.9 |
| 20260510025005 | 51 | 6 | 5.0 | 6.0 | 0.00 | 0.00 | 0.00 | 86 | 1014.0 |
| 20260510024505 | 51 | 10 | 4.0 | 4.0 | 0.00 | 0.00 | 0.00 | 85 | 1014.0 |
| 20260510024005 | 52 | 345 | 3.0 | 4.0 | 0.00 | 0.00 | 0.00 | 85 | 1013.9 |
| 20260510023506 | 52 | 0 | 4.0 | 4.0 | 0.00 | 0.00 | 0.00 | 84 | 1014.1 |
| 20260510023005 | 52 | 6 | 3.0 | 4.0 | 0.00 | 0.00 | 0.00 | 84 | 1014.0 |
| 20260510022510 | 52 | 48 | 4.0 | 5.0 | 0.00 | 0.00 | 0.00 | 84 | 1013.9 |
| 20260510022006 | 52 | 30 | 5.0 | 6.0 | 0.00 | 0.00 | 0.00 | 84 | 1013.9 |
| 20260510021506 | 52 | 12 | 5.0 | 5.0 | 0.00 | 0.00 | 0.00 | 84 | 1014.1 |
| 20260510021005 | 52 | 8 | 5.0 | 5.0 | 0.00 | 0.00 | 0.00 | 84 | 1013.9 |
| 20260510020505 | 51 | 23 | 4.0 | 5.0 | 0.00 | 0.00 | 0.00 | 84 | 1014.1 |
| 20260510020005 | 52 | 28 | 3.0 | 4.0 | 0.00 | 0.00 | 0.00 | 83 | 1014.0 |
| 20260510015505 | 52 | 4 | 4.0 | 4.0 | 0.00 | 0.00 | 0.00 | 83 | 1014.1 |
| 20260510015005 | 52 | 9 | 3.0 | 4.0 | 0.00 | 0.00 | 0.00 | 83 | 1014.2 |
| 20260510014510 | 52 | 35 | 3.0 | 4.0 | 0.00 | 0.00 | 0.00 | 83 | 1014.3 |
| 20260510014006 | 52 | 15 | 3.0 | 4.0 | 0.00 | 0.00 | 0.00 | 82 | 1014.3 |
| 20260510013511 | 52 | 358 | 3.0 | 4.0 | 0.00 | 0.00 | 0.00 | 82 | 1014.5 |
| 20260510013011 | 52 | 27 | 2.0 | 3.0 | 0.00 | 0.00 | 0.00 | 82 | 1014.5 |
| 20260510012505 | 52 | 9 | 2.0 | 2.0 | 0.00 | 0.00 | 0.00 | 82 | 1014.4 |
| 20260510012006 | 52 | 19 | 3.0 | 3.0 | 0.00 | 0.00 | 0.00 | 82 | 1014.2 |
| 20260510011505 | 52 | 12 | 3.0 | 4.0 | 0.00 | 0.00 | 0.00 | 81 | 1014.3 |
| 20260510011005 | 52 | 12 | 2.0 | 3.0 | 0.00 | 0.00 | 0.00 | 81 | 1014.3 |
| 20260510010505 | 52 | 26 | 1.0 | 3.0 | 0.00 | 0.00 | 0.00 | 81 | 1014.5 |
| 20260510010010 | 52 | 10 | 3.0 | 4.0 | 0.00 | 0.00 | 0.00 | 80 | 1014.6 |
| 20260510005510 | 52 | 17 | 5.0 | 5.0 | 0.00 | 0.00 | 0.00 | 80 | 1014.5 |
| 20260510005006 | 52 | 15 | 2.0 | 4.0 | 0.00 | 0.00 | 0.00 | 80 | 1014.3 |
| 20260510004511 | 52 | 356 | 3.0 | 4.0 | 0.00 | 0.00 | 0.00 | 79 | 1014.6 |
| 20260510004005 | 52 | 352 | 7.0 | 8.0 | 0.00 | 0.00 | 0.00 | 79 | 1014.6 |
| 20260510003505 | 52 | 24 | 3.0 | 5.0 | 0.00 | 0.00 | 0.00 | 79 | 1014.6 |
| 20260510003005 | 52 | 18 | 6.0 | 8.0 | 0.00 | 0.00 | 0.00 | 78 | 1014.5 |
| 20260510002505 | 52 | 10 | 5.0 | 6.0 | 0.00 | 0.00 | 0.00 | 78 | 1014.5 |
| 20260510002006 | 53 | 9 | 4.0 | 5.0 | 0.00 | 0.00 | 0.00 | 78 | 1014.8 |
| 20260510001506 | 53 | 3 | 5.0 | 5.0 | 0.00 | 0.00 | 0.00 | 77 | 1014.7 |
| 20260510001005 | 53 | 14 | 4.0 | 4.0 | 0.00 | 0.00 | 0.00 | 77 | 1014.9 |
| 20260510000506 | 53 | 9 | 4.0 | 5.0 | 0.00 | 0.00 | 0.00 | 76 | 1014.9 |
| 20260510000005 | 53 | 43 | 5.0 | 5.0 | 0.00 | 0.00 | 0.00 | 76 | 1015.0 |
| 20260509235505 | 53 | 5 | 4.0 | 4.0 | 0.00 | 0.00 | 0.00 | 76 | 1015.0 |
| 20260509235006 | 53 | 11 | 4.0 | 6.0 | 0.00 | 0.00 | 0.00 | 76 | 1014.9 |
| 20260509234511 | 53 | 17 | 4.0 | 5.0 | 0.00 | 0.00 | 0.00 | 75 | 1014.9 |
| 20260509234005 | 53 | 7 | 6.0 | 6.0 | 0.00 | 0.00 | 0.00 | 75 | 1015.1 |
| 20260509233505 | 53 | 8 | 6.0 | 6.0 | 0.00 | 0.00 | 0.00 | 74 | 1014.9 |
| 20260509233005 | 53 | 8 | 4.0 | 5.0 | 0.00 | 0.00 | 0.00 | 74 | 1014.8 |
| 20260509232505 | 53 | 8 | 4.0 | 5.0 | 0.00 | 0.00 | 0.00 | 74 | 1014.9 |
| 20260509232005 | 54 | 25 | 4.0 | 4.0 | 0.00 | 0.00 | 0.00 | 73 | 1015.3 |
| 20260509231506 | 54 | 45 | 4.0 | 4.0 | 0.00 | 0.00 | 0.00 | 73 | 1015.0 |
| 20260509231005 | 54 | 11 | 4.0 | 5.0 | 0.00 | 0.00 | 0.00 | 72 | 1015.0 |
| 20260509230510 | 54 | 5 | 4.0 | 5.0 | 0.00 | 0.00 | 0.00 | 72 | 1015.3 |
| 20260509230010 | 54 | 5 | 5.0 | 6.0 | 0.00 | 0.00 | 0.00 | 71 | 1015.1 |
| 20260509225506 | 54 | 346 | 3.0 | 5.0 | 0.00 | 0.00 | 0.00 | 70 | 1015.3 |
| 20260509225006 | 54 | 13 | 4.0 | 4.0 | 0.00 | 0.00 | 0.00 | 70 | 1015.2 |
| 20260509224505 | 54 | 29 | 5.0 | 6.0 | 0.00 | 0.00 | 0.00 | 69 | 1015.1 |
| 20260509224005 | 54 | 0 | 4.0 | 5.0 | 0.00 | 0.00 | 0.00 | 68 | 1015.1 |
| 20260509223505 | 54 | 30 | 4.0 | 5.0 | 0.00 | 0.00 | 0.00 | 68 | 1015.3 |
| 20260509223006 | 55 | 33 | 2.0 | 3.0 | 0.00 | 0.00 | 0.00 | 66 | 1015.1 |
| 20260509222505 | 55 | 26 | 4.0 | 6.0 | 0.00 | 0.00 | 0.00 | 66 | 1015.1 |
| 20260509222010 | 55 | 8 | 6.0 | 8.0 | 0.00 | 0.00 | 0.00 | 66 | 1015.1 |
| 20260509221505 | 55 | 45 | 5.0 | 6.0 | 0.00 | 0.00 | 0.00 | 65 | 1015.0 |
| 20260509221005 | 55 | 354 | 5.0 | 6.0 | 0.00 | 0.00 | 0.00 | 64 | 1015.1 |
| 20260509220505 | 55 | 17 | 5.0 | 5.0 | 0.00 | 0.00 | 0.00 | 64 | 1015.1 |
| 20260509220006 | 55 | 15 | 3.0 | 4.0 | 0.00 | 0.00 | 0.00 | 64 | 1015.2 |
| 20260509215505 | 55 | 13 | 5.0 | 5.0 | 0.00 | 0.00 | 0.00 | 64 | 1015.1 |
| 20260509215010 | 55 | 31 | 5.0 | 5.0 | 0.00 | 0.00 | 0.00 | 64 | 1015.0 |
| 20260509214506 | 56 | 7 | 7.0 | 9.0 | 0.00 | 0.00 | 0.00 | 64 | 1015.0 |
| 20260509214006 | 56 | 3 | 5.0 | 6.0 | 0.00 | 0.00 | 0.00 | 65 | 1014.9 |
| 20260509213505 | 56 | 34 | 4.0 | 5.0 | 0.00 | 0.00 | 0.00 | 65 | 1014.9 |
| 20260509213006 | 56 | 355 | 6.0 | 8.0 | 0.00 | 0.00 | 0.00 | 65 | 1015.3 |
| 20260509212506 | 56 | 21 | 5.0 | 6.0 | 0.00 | 0.00 | 0.00 | 66 | 1015.0 |
| 20260509212005 | 56 | 356 | 5.0 | 5.0 | 0.00 | 0.00 | 0.00 | 66 | 1015.0 |
| 20260509211505 | 56 | 21 | 5.0 | 6.0 | 0.00 | 0.00 | 0.00 | 66 | 1015.0 |
| 20260509211010 | 56 | 347 | 4.0 | 6.0 | 0.00 | 0.00 | 0.00 | 66 | 1014.7 |
| 20260509210505 | 57 | 357 | 6.0 | 8.0 | 0.00 | 0.00 | 0.00 | 66 | 1014.8 |
| 20260509210005 | 57 | 353 | 3.0 | 4.0 | 0.00 | 0.00 | 0.00 | 66 | 1015.0 |
| 20260509205511 | 57 | 24 | 5.0 | 6.0 | 0.00 | 0.00 | 0.00 | 65 | 1014.9 |
| 20260509205006 | 57 | 14 | 5.0 | 6.0 | 0.00 | 0.00 | 0.00 | 65 | 1015.0 |
| 20260509204505 | 57 | 21 | 3.0 | 4.0 | 0.00 | 0.00 | 0.00 | 65 | 1014.7 |
| 20260509204005 | 57 | 2 | 2.0 | 4.0 | 0.00 | 0.00 | 0.00 | 65 | 1014.8 |
| 20260509203505 | 58 | 21 | 5.0 | 5.0 | 0.00 | 0.00 | 0.00 | 64 | 1014.7 |
| 20260509203010 | 58 | 11 | 5.0 | 6.0 | 0.00 | 0.00 | 0.00 | 64 | 1014.8 |
| 20260509202505 | 58 | 1 | 6.0 | 8.0 | 0.00 | 0.00 | 0.00 | 63 | 1015.0 |
| 20260509202006 | 58 | 20 | 6.0 | 8.0 | 0.00 | 0.00 | 0.00 | 63 | 1015.0 |
| 20260509201506 | 58 | 31 | 5.0 | 5.0 | 0.00 | 0.00 | 0.00 | 63 | 1014.9 |
| 20260509201011 | 59 | 7 | 3.0 | 3.0 | 0.00 | 0.00 | 0.00 | 63 | 1015.0 |
| 20260509200506 | 59 | 6 | 4.0 | 5.0 | 0.00 | 0.00 | 0.00 | 63 | 1014.8 |
| 20260509200006 | 59 | 33 | 6.0 | 8.0 | 0.00 | 0.00 | 0.00 | 62 | 1014.9 |
| 20260509195505 | 59 | 15 | 5.0 | 6.0 | 0.00 | 0.00 | 0.00 | 62 | 1014.8 |
| 20260509195005 | 59 | 6 | 5.0 | 6.0 | 0.00 | 0.00 | 0.00 | 61 | 1014.8 |
| 20260509194506 | 60 | 5 | 4.0 | 5.0 | 0.00 | 0.00 | 0.00 | 61 | 1014.7 |
| 20260509194006 | 60 | 4 | 8.0 | 10.0 | 0.00 | 0.00 | 0.00 | 61 | 1014.5 |
| 20260509193505 | 60 | 17 | 5.0 | 6.0 | 0.00 | 0.00 | 0.00 | 61 | 1014.5 |
| 20260509193005 | 60 | 18 | 8.0 | 9.0 | 0.00 | 0.00 | 0.00 | 60 | 1014.5 |
| 20260509192506 | 61 | 18 | 5.0 | 6.0 | 0.00 | 0.00 | 0.00 | 61 | 1014.5 |
| 20260509192005 | 61 | 5 | 5.0 | 5.0 | 0.00 | 0.00 | 0.00 | 61 | 1014.4 |
| 20260509191506 | 61 | 22 | 9.0 | 10.0 | 0.00 | 0.00 | 0.00 | 60 | 1014.4 |
| 20260509191005 | 61 | 355 | 7.0 | 8.0 | 0.00 | 0.00 | 0.00 | 60 | 1014.5 |
| 20260509190510 | 62 | 358 | 4.0 | 6.0 | 0.00 | 0.00 | 0.00 | 60 | 1014.4 |
| 20260509190006 | 62 | 302 | 6.0 | 9.0 | 0.00 | 0.00 | 0.00 | 60 | 1014.3 |
| 20260509185505 | 63 | 9 | 4.0 | 6.0 | 0.00 | 0.00 | 0.00 | 59 | 1014.3 |
| 20260509185005 | 63 | 16 | 6.0 | 8.0 | 0.00 | 0.00 | 0.00 | 58 | 1014.5 |
| 20260509184505 | 63 | 31 | 6.0 | 6.0 | 0.00 | 0.00 | 0.00 | 57 | 1014.5 |
| 20260509184005 | 63 | 338 | 11.0 | 13.0 | 0.00 | 0.00 | 0.00 | 57 | 1014.5 |
| 20260509183505 | 64 | 34 | 7.0 | 9.0 | 0.00 | 0.00 | 0.00 | 56 | 1014.6 |
| 20260509183006 | 64 | 18 | 7.0 | 10.0 | 0.00 | 0.00 | 0.00 | 55 | 1014.4 |
| 20260509182511 | 64 | 353 | 10.0 | 12.0 | 0.00 | 0.00 | 0.00 | 55 | 1014.2 |
| 20260509182005 | 64 | 22 | 6.0 | 9.0 | 0.00 | 0.00 | 0.00 | 54 | 1014.4 |
| 20260509181506 | 65 | 33 | 8.0 | 10.0 | 0.00 | 0.00 | 0.00 | 54 | 1014.3 |
| 20260509181006 | 66 | 13 | 9.0 | 11.0 | 0.00 | 0.00 | 0.00 | 52 | 1014.3 |
| 20260509180505 | 66 | 53 | 9.0 | 12.0 | 0.00 | 0.00 | 0.00 | 51 | 1014.2 |
| 20260509180010 | 66 | 347 | 6.0 | 6.0 | 0.00 | 0.00 | 0.00 | 51 | 1014.2 |
| 20260509175506 | 66 | 340 | 9.0 | 12.0 | 0.00 | 0.00 | 0.00 | 50 | 1014.2 |
| 20260509175006 | 66 | 60 | 10.0 | 11.0 | 0.00 | 0.00 | 0.00 | 49 | 1014.3 |
| 20260509174505 | 67 | 47 | 6.0 | 6.0 | 0.00 | 0.00 | 0.00 | 49 | 1014.2 |
| 20260509174005 | 67 | 8 | 6.0 | 8.0 | 0.00 | 0.00 | 0.00 | 49 | 1014.1 |
| 20260509173505 | 67 | 31 | 6.0 | 8.0 | 0.00 | 0.00 | 0.00 | 48 | 1014.0 |
| 20260509173006 | 67 | 18 | 7.0 | 9.0 | 0.00 | 0.00 | 0.00 | 48 | 1014.2 |
| 20260509172506 | 68 | 358 | 4.0 | 5.0 | 0.00 | 0.00 | 0.00 | 48 | 1014.0 |
| 20260509172005 | 68 | 56 | 5.0 | 6.0 | 0.00 | 0.00 | 0.00 | 48 | 1013.9 |
| 20260509171505 | 68 | 14 | 8.0 | 11.0 | 0.00 | 0.00 | 0.00 | 48 | 1013.8 |
| 20260509171005 | 68 | 322 | 6.0 | 6.0 | 0.00 | 0.00 | 0.00 | 48 | 1014.1 |
| 20260509170505 | 68 | 353 | 7.0 | 8.0 | 0.00 | 0.00 | 0.00 | 48 | 1014.0 |
| 20260509170005 | 68 | 356 | 5.0 | 6.0 | 0.00 | 0.00 | 0.00 | 48 | 1013.8 |
| 20260509165505 | 69 | 342 | 6.0 | 8.0 | 0.00 | 0.00 | 0.00 | 48 | 1013.7 |
| 20260509165010 | 68 | 10 | 7.0 | 9.0 | 0.00 | 0.00 | 0.00 | 48 | 1013.5 |
| 20260509164505 | 69 | 335 | 7.0 | 10.0 | 0.00 | 0.00 | 0.00 | 48 | 1014.0 |
| 20260509164005 | 69 | 17 | 7.0 | 10.0 | 0.00 | 0.00 | 0.00 | 46 | 1014.1 |
| 20260509163505 | 69 | 13 | 5.0 | 6.0 | 0.00 | 0.00 | 0.00 | 46 | 1014.0 |
| 20260509163005 | 69 | 29 | 4.0 | 6.0 | 0.00 | 0.00 | 0.00 | 45 | 1014.0 |
| 20260509162511 | 69 | 347 | 5.0 | 6.0 | 0.00 | 0.00 | 0.00 | 44 | 1013.9 |
| 20260509162006 | 69 | 13 | 5.0 | 6.0 | 0.00 | 0.00 | 0.00 | 44 | 1014.0 |
| 20260509161510 | 69 | 33 | 6.0 | 8.0 | 0.00 | 0.00 | 0.00 | 44 | 1014.1 |
| 20260509161006 | 69 | 1 | 8.0 | 10.0 | 0.00 | 0.00 | 0.00 | 44 | 1014.0 |
| 20260509160505 | 69 | 345 | 4.0 | 4.0 | 0.00 | 0.00 | 0.00 | 45 | 1014.1 |
| 20260509160005 | 69 | 20 | 3.0 | 3.0 | 0.00 | 0.00 | 0.00 | 44 | 1014.1 |
| 20260509155510 | 69 | 335 | 2.0 | 3.0 | 0.00 | 0.00 | 0.00 | 44 | 1014.1 |
| 20260509155005 | 69 | 339 | 3.0 | 4.0 | 0.00 | 0.00 | 0.00 | 44 | 1014.1 |
| 20260509154510 | 70 | 0 | 2.0 | 3.0 | 0.00 | 0.00 | 0.00 | 44 | 1014.1 |
| 20260509154006 | 70 | 19 | 1.0 | 2.0 | 0.00 | 0.00 | 0.00 | 41 | 1014.1 |
| 20260509153510 | 70 | 15 | 0.0 | 1.0 | 0.00 | 0.00 | 0.00 | 42 | 1014.3 |
| 20260509153005 | 69 | 75 | 2.0 | 4.0 | 0.00 | 0.00 | 0.00 | 42 | 1014.1 |
| 20260509152505 | 70 | 14 | 0.0 | 1.0 | 0.00 | 0.00 | 0.00 | 41 | 1014.2 |
| 20260509152005 | 72 | 81 | 3.0 | 4.0 | 0.00 | 0.00 | 0.00 | 41 | 1014.0 |
| 20260509151505 | 72 | 65 | 3.0 | 5.0 | 0.00 | 0.00 | 0.00 | 41 | 1014.2 |
| 20260509151006 | 72 | 59 | 3.0 | 4.0 | 0.00 | 0.00 | 0.00 | 40 | 1014.0 |
| 20260509150505 | 72 | 34 | 2.0 | 2.0 | 0.00 | 0.00 | 0.00 | 40 | 1014.1 |
| 20260509150005 | 71 | 359 | 0.0 | 1.0 | 0.00 | 0.00 | 0.00 | 39 | 1014.0 |
| 20260509145505 | 70 | 5 | 0.0 | 0.0 | 0.00 | 0.00 | 0.00 | 41 | 1014.4 |
| 20260509145006 | 70 | 51 | 1.0 | 2.0 | 0.00 | 0.00 | 0.00 | 42 | 1014.3 |
| 20260509144505 | 68 | 34 | 3.0 | 4.0 | 0.00 | 0.00 | 0.00 | 43 | 1014.4 |
| 20260509144005 | 68 | 49 | 2.0 | 3.0 | 0.00 | 0.00 | 0.00 | 43 | 1014.4 |
| 20260509143505 | 70 | 21 | 5.0 | 6.0 | 0.00 | 0.00 | 0.00 | 43 | 1014.4 |
| 20260509143005 | 70 | 11 | 4.0 | 5.0 | 0.00 | 0.00 | 0.00 | 42 | 1014.5 |
| 20260509142506 | 70 | 36 | 2.0 | 4.0 | 0.00 | 0.00 | 0.00 | 43 | 1014.6 |
| 20260509142005 | 69 | 27 | 1.0 | 2.0 | 0.00 | 0.00 | 0.00 | 44 | 1014.4 |
| 20260509141506 | 70 | 0 | 3.0 | 4.0 | 0.00 | 0.00 | 0.00 | 43 | 1014.5 |
| 20260509141005 | 71 | 356 | 0.0 | 1.0 | 0.00 | 0.00 | 0.00 | 41 | 1014.5 |
| 20260509140506 | 72 | 27 | 4.0 | 5.0 | 0.00 | 0.00 | 0.00 | 40 | 1014.8 |
| 20260509140006 | 72 | 8 | 2.0 | 3.0 | 0.00 | 0.00 | 0.00 | 40 | 1014.8 |
| 20260509135510 | 71 | 9 | 0.0 | 1.0 | 0.00 | 0.00 | 0.00 | 41 | 1014.5 |
| 20260509135005 | 71 | 65 | 2.0 | 2.0 | 0.00 | 0.00 | 0.00 | 41 | 1014.6 |
| 20260509134506 | 73 | 222 | 2.0 | 3.0 | 0.00 | 0.00 | 0.00 | 39 | 1014.8 |
| 20260509134006 | 72 | 28 | 0.0 | 0.0 | 0.00 | 0.00 | 0.00 | 41 | 1014.6 |
| 20260509133506 | 71 | 29 | 1.0 | 3.0 | 0.00 | 0.00 | 0.00 | 41 | 1014.8 |
| 20260509133005 | 71 | 21 | 0.0 | 1.0 | 0.00 | 0.00 | 0.00 | 41 | 1014.7 |
| 20260509132505 | 70 | 34 | 3.0 | 4.0 | 0.00 | 0.00 | 0.00 | 41 | 1015.0 |
| 20260509132005 | 71 | 49 | 2.0 | 3.0 | 0.00 | 0.00 | 0.00 | 42 | 1014.7 |
| 20260509131506 | 71 | 57 | 1.0 | 2.0 | 0.00 | 0.00 | 0.00 | 41 | 1014.9 |
| 20260509131005 | 70 | 349 | 0.0 | 1.0 | 0.00 | 0.00 | 0.00 | 41 | 1015.0 |
| 20260509130506 | 70 | 25 | 4.0 | 5.0 | 0.00 | 0.00 | 0.00 | 42 | 1014.7 |
| 20260509130010 | 70 | 74 | 4.0 | 5.0 | 0.00 | 0.00 | 0.00 | 43 | 1015.1 |
| 20260509125505 | 70 | 50 | 4.0 | 6.0 | 0.00 | 0.00 | 0.00 | 43 | 1015.0 |
| 20260509125005 | 70 | 238 | 4.0 | 6.0 | 0.00 | 0.00 | 0.00 | 42 | 1015.1 |
| 20260509124505 | 69 | 66 | 4.0 | 5.0 | 0.00 | 0.00 | 0.00 | 45 | 1015.3 |
| 20260509124006 | 70 | 30 | 4.0 | 6.0 | 0.00 | 0.00 | 0.00 | 45 | 1015.3 |
| 20260509123506 | 69 | 10 | 4.0 | 6.0 | 0.00 | 0.00 | 0.00 | 44 | 1015.3 |
| 20260509123006 | 69 | 15 | 3.0 | 4.0 | 0.00 | 0.00 | 0.00 | 44 | 1015.3 |
| 20260509122506 | 70 | 65 | 3.0 | 4.0 | 0.00 | 0.00 | 0.00 | 43 | 1015.3 |
| 20260509122005 | 69 | 22 | 3.0 | 5.0 | 0.00 | 0.00 | 0.00 | 44 | 1015.3 |
| 20260509121505 | 69 | 50 | 2.0 | 2.0 | 0.00 | 0.00 | 0.00 | 44 | 1015.4 |
| 20260509121005 | 70 | 14 | 4.0 | 6.0 | 0.00 | 0.00 | 0.00 | 46 | 1015.4 |
| 20260509120505 | 69 | 11 | 4.0 | 5.0 | 0.00 | 0.00 | 0.00 | 46 | 1015.5 |
| 20260509120005 | 70 | 113 | 3.0 | 5.0 | 0.00 | 0.00 | 0.00 | 45 | 1015.8 |
| 20260509115505 | 69 | 10 | 2.0 | 3.0 | 0.00 | 0.00 | 0.00 | 46 | 1015.8 |
| 20260509115005 | 69 | 33 | 5.0 | 6.0 | 0.00 | 0.00 | 0.00 | 46 | 1015.9 |
| 20260509114510 | 68 | 347 | 3.0 | 4.0 | 0.00 | 0.00 | 0.00 | 48 | 1015.9 |
| 20260509114005 | 68 | 1 | 0.0 | 1.0 | 0.00 | 0.00 | 0.00 | 47 | 1016.1 |
| 20260509113505 | 69 | 50 | 3.0 | 4.0 | 0.00 | 0.00 | 0.00 | 46 | 1016.2 |
| 20260509113005 | 68 | 24 | 4.0 | 5.0 | 0.00 | 0.00 | 0.00 | 46 | 1016.0 |
| 20260509112505 | 68 | 2 | 7.0 | 8.0 | 0.00 | 0.00 | 0.00 | 48 | 1016.1 |
| 20260509112005 | 68 | 9 | 4.0 | 4.0 | 0.00 | 0.00 | 0.00 | 48 | 1015.8 |
| 20260509111510 | 67 | 62 | 1.0 | 3.0 | 0.00 | 0.00 | 0.00 | 48 | 1016.2 |
| 20260509111005 | 68 | 3 | 3.0 | 5.0 | 0.00 | 0.00 | 0.00 | 48 | 1016.2 |
| 20260509110505 | 68 | 54 | 3.0 | 4.0 | 0.00 | 0.00 | 0.00 | 46 | 1016.0 |
| 20260509110005 | 68 | 2 | 3.0 | 3.0 | 0.00 | 0.00 | 0.00 | 49 | 1016.2 |
| 20260509105506 | 66 | 51 | 4.0 | 8.0 | 0.00 | 0.00 | 0.00 | 49 | 1016.2 |
| 20260509105011 | 67 | 0 | 5.0 | 5.0 | 0.00 | 0.00 | 0.00 | 49 | 1016.3 |
| 20260509104510 | 67 | 13 | 3.0 | 4.0 | 0.00 | 0.00 | 0.00 | 49 | 1016.1 |
| 20260509104006 | 68 | 72 | 3.0 | 8.0 | 0.00 | 0.00 | 0.00 | 48 | 1016.3 |
| 20260509103511 | 68 | 19 | 2.0 | 3.0 | 0.00 | 0.00 | 0.00 | 49 | 1016.3 |
| 20260509103006 | 67 | 57 | 4.0 | 5.0 | 0.00 | 0.00 | 0.00 | 50 | 1016.4 |
| 20260509102505 | 68 | 25 | 2.0 | 2.0 | 0.00 | 0.00 | 0.00 | 49 | 1016.3 |
| 20260509102010 | 66 | 48 | 3.0 | 4.0 | 0.00 | 0.00 | 0.00 | 51 | 1016.4 |
| 20260509101510 | 67 | 356 | 2.0 | 3.0 | 0.00 | 0.00 | 0.00 | 50 | 1016.5 |
| 20260509101006 | 66 | 74 | 4.0 | 6.0 | 0.00 | 0.00 | 0.00 | 50 | 1016.5 |
| 20260509100506 | 66 | 51 | 2.0 | 3.0 | 0.00 | 0.00 | 0.00 | 53 | 1016.4 |
| 20260509100006 | 66 | 80 | 4.0 | 6.0 | 0.00 | 0.00 | 0.00 | 51 | 1016.4 |
| 20260509095505 | 67 | 69 | 4.0 | 5.0 | 0.00 | 0.00 | 0.00 | 50 | 1016.5 |
| 20260509095006 | 67 | 75 | 4.0 | 6.0 | 0.00 | 0.00 | 0.00 | 48 | 1016.4 |
| 20260509094505 | 66 | 35 | 4.0 | 5.0 | 0.00 | 0.00 | 0.00 | 51 | 1016.4 |
| 20260509094005 | 66 | 27 | 6.0 | 8.0 | 0.00 | 0.00 | 0.00 | 49 | 1016.6 |
| 20260509093505 | 65 | 50 | 5.0 | 8.0 | 0.00 | 0.00 | 0.00 | 52 | 1016.6 |
| 20260509093005 | 66 | 39 | 8.0 | 9.0 | 0.00 | 0.00 | 0.00 | 50 | 1016.8 |
| 20260509092506 | 65 | 77 | 5.0 | 8.0 | 0.00 | 0.00 | 0.00 | 50 | 1016.7 |
| 20260509092011 | 65 | 43 | 6.0 | 6.0 | 0.00 | 0.00 | 0.00 | 50 | 1016.8 |
| 20260509091505 | 65 | 32 | 4.0 | 6.0 | 0.00 | 0.00 | 0.00 | 50 | 1016.7 |
| 20260509091005 | 66 | 34 | 3.0 | 6.0 | 0.00 | 0.00 | 0.00 | 51 | 1016.6 |
| 20260509090505 | 65 | 32 | 2.0 | 3.0 | 0.00 | 0.00 | 0.00 | 52 | 1016.6 |
| 20260509090005 | 66 | 34 | 3.0 | 3.0 | 0.00 | 0.00 | 0.00 | 53 | 1016.6 |
| 20260509085505 | 64 | 44 | 3.0 | 5.0 | 0.00 | 0.00 | 0.00 | 53 | 1016.5 |
| 20260509085005 | 65 | 86 | 2.0 | 2.0 | 0.00 | 0.00 | 0.00 | 52 | 1016.8 |
| 20260509084505 | 65 | 77 | 1.0 | 2.0 | 0.00 | 0.00 | 0.00 | 50 | 1016.7 |
| 20260509084006 | 64 | 82 | 4.0 | 4.0 | 0.00 | 0.00 | 0.00 | 52 | 1016.7 |
| 20260509083506 | 64 | 60 | 3.0 | 5.0 | 0.00 | 0.00 | 0.00 | 54 | 1016.5 |
| 20260509083011 | 64 | 76 | 5.0 | 6.0 | 0.00 | 0.00 | 0.00 | 55 | 1016.7 |
| 20260509082505 | 64 | 116 | 2.0 | 4.0 | 0.00 | 0.00 | 0.00 | 55 | 1016.8 |
| 20260509082005 | 64 | 68 | 6.0 | 8.0 | 0.00 | 0.00 | 0.00 | 54 | 1016.7 |
| 20260509081511 | 64 | 60 | 2.0 | 3.0 | 0.00 | 0.00 | 0.00 | 57 | 1016.9 |
| 20260509081006 | 63 | 62 | 3.0 | 4.0 | 0.00 | 0.00 | 0.00 | 56 | 1016.7 |
| 20260509080506 | 63 | 26 | 1.0 | 1.0 | 0.00 | 0.00 | 0.00 | 58 | 1017.0 |
| 20260509080005 | 63 | 91 | 4.0 | 4.0 | 0.00 | 0.00 | 0.00 | 57 | 1016.8 |
| 20260509075505 | 62 | 41 | 2.0 | 4.0 | 0.00 | 0.00 | 0.00 | 57 | 1016.8 |
| 20260509075005 | 62 | 53 | 3.0 | 4.0 | 0.00 | 0.00 | 0.00 | 57 | 1016.9 |
| 20260509074505 | 62 | 26 | 1.0 | 2.0 | 0.00 | 0.00 | 0.00 | 57 | 1017.0 |
| 20260509074010 | 62 | 81 | 4.0 | 4.0 | 0.00 | 0.00 | 0.00 | 57 | 1016.9 |
| 20260509073510 | 61 | 61 | 2.0 | 3.0 | 0.00 | 0.00 | 0.00 | 59 | 1016.9 |
| 20260509073006 | 61 | 54 | 4.0 | 5.0 | 0.00 | 0.00 | 0.00 | 59 | 1016.8 |
| 20260509072510 | 61 | 55 | 3.0 | 4.0 | 0.00 | 0.00 | 0.00 | 60 | 1016.9 |
| 20260509072005 | 61 | 20 | 1.0 | 2.0 | 0.00 | 0.00 | 0.00 | 58 | 1016.8 |
| 20260509071505 | 61 | 101 | 1.0 | 2.0 | 0.00 | 0.00 | 0.00 | 59 | 1017.1 |
| 20260509071010 | 61 | 47 | 4.0 | 5.0 | 0.00 | 0.00 | 0.00 | 60 | 1016.8 |
| 20260509070505 | 60 | 349 | 1.0 | 2.0 | 0.00 | 0.00 | 0.00 | 61 | 1016.8 |
| 20260509070005 | 60 | 25 | 0.0 | 2.0 | 0.00 | 0.00 | 0.00 | 62 | 1016.8 |
| 20260509065505 | 59 | 39 | 1.0 | 2.0 | 0.00 | 0.00 | 0.00 | 63 | 1016.9 |
| 20260509065005 | 59 | 58 | 0.0 | 2.0 | 0.00 | 0.00 | 0.00 | 64 | 1016.6 |
| 20260509064505 | 59 | 24 | 2.0 | 3.0 | 0.00 | 0.00 | 0.00 | 64 | 1017.0 |
| 20260509064005 | 57 | 22 | 1.0 | 1.0 | 0.00 | 0.00 | 0.00 | 69 | 1016.7 |
| 20260509063511 | 57 | 42 | 2.0 | 2.0 | 0.00 | 0.00 | 0.00 | 70 | 1016.9 |
| 20260509063010 | 56 | 17 | 2.0 | 3.0 | 0.00 | 0.00 | 0.00 | 69 | 1016.6 |
| 20260509062505 | 56 | 11 | 2.0 | 2.0 | 0.00 | 0.00 | 0.00 | 69 | 1016.8 |
| 20260509062005 | 56 | 39 | 2.0 | 3.0 | 0.00 | 0.00 | 0.00 | 69 | 1016.9 |
| 20260509061510 | 56 | 30 | 1.0 | 2.0 | 0.00 | 0.00 | 0.00 | 69 | 1016.8 |
| 20260509061005 | 56 | 66 | 2.0 | 3.0 | 0.00 | 0.00 | 0.00 | 70 | 1016.8 |
| 20260509060505 | 56 | 20 | 0.0 | 1.0 | 0.00 | 0.00 | 0.00 | 69 | 1016.5 |
| 20260509060006 | 55 | 14 | 0.0 | 0.0 | 0.00 | 0.00 | 0.00 | 72 | 1016.9 |
| 20260509055505 | 54 | 26 | 1.0 | 2.0 | 0.00 | 0.00 | 0.00 | 72 | 1016.7 |
| 20260509055006 | 54 | 27 | 0.0 | 1.0 | 0.00 | 0.00 | 0.00 | 74 | 1016.9 |
| 20260509054505 | 53 | 80 | 1.0 | 2.0 | 0.00 | 0.00 | 0.00 | 75 | 1016.9 |
| 20260509054005 | 54 | 53 | 2.0 | 3.0 | 0.00 | 0.00 | 0.00 | 74 | 1016.8 |